Ketchikan, AK

9:36 PM AKDT on September 20, 2018 (GMT -0800)
Ketchikan International

Weather History for PAKT - March, 2018

Change the Weather History Date:

Tuesday, March 6, 2018

  Actual Average Record
Temperature  
Mean Temperature 34 °F -  
Max Temperature 37 °F 42 °F 51 °F (1950)
Min Temperature 30 °F 32 °F 14 °F (1951)
Degree Days  
Heating Degree Days 30    
Moisture  
Dew Point 29 °F    
Average Humidity 81    
Maximum Humidity 89    
Minimum Humidity 70    
Precipitation  
Precipitation 0.00 in - - ()
Sea Level Pressure  
Sea Level Pressure 30.37 in    
Wind  
Wind Speed 2 mph (SSE)    
Max Wind Speed 7 mph    
Max Gust Speed -    
Visibility 9 miles    
Events Snow    
Averages and records for this station are not official NWS values.
T = Trace of Precipitation, MM = Missing Value Source: NWS Daily Summary

Daily Weather History Graph

Daily Weather History Graph

Search for Another Location

Airport or City:

Astronomy

Mar. 06, 2018 Rise Set
Actual Time 6:24 AM AKST 5:32 PM AKST
Civil Twilight 5:47 AM AKST 6:09 PM AKST
Nautical Twilight 5:05 AM AKST 6:51 PM AKST
Astronomical Twilight 4:22 AM AKST 7:35 PM AKST
Moon 11:37 PM AKST (3/6) 8:36 AM AKST (3/6)
Length of Visible Light 12h 21m
Length of Day
11h 08m
Waning Gibbous, 74% of the Moon is Illuminated
Mar 6
Waning Gibbous
Mar 9
Last Quarter
Mar 17
New
Mar 24
First Quarter
Mar 31
Full

Hourly Weather History & Observations

Time (AKST) Temp. Windchill Dew Point Humidity Pressure Visibility Wind Dir Wind Speed Gust Speed Precip Events Conditions
12:53 AM 34.0 °F - 27.0 °F 75% 30.39 in 10.0 mi Calm Calm - N/A   Overcast
1:53 AM 33.1 °F - 28.0 °F 82% 30.39 in 10.0 mi Calm Calm - N/A   Overcast
2:53 AM 33.1 °F - 28.0 °F 82% 30.39 in 10.0 mi Calm Calm - N/A   Overcast
3:53 AM 34.0 °F - 27.0 °F 75% 30.39 in 9.0 mi Calm Calm - 0.00 in   Overcast
4:53 AM 33.1 °F 30.0 °F 27.0 °F 78% 30.39 in 10.0 mi South 3.5 mph - N/A   Overcast
5:53 AM 32.0 °F - 28.0 °F 85% 30.39 in 8.0 mi Calm Calm - 0.00 in Snow Light Snow
6:53 AM 33.1 °F - 28.0 °F 82% 30.38 in 9.0 mi Calm Calm - 0.00 in   Overcast
7:53 AM 34.0 °F - 28.0 °F 79% 30.39 in 6.0 mi Calm Calm - 0.00 in Snow Light Snow
8:53 AM 34.0 °F - 28.9 °F 82% 30.40 in 4.0 mi Calm Calm - 0.00 in Snow Light Snow
9:53 AM 33.8 °F 28.6 °F 28.4 °F 81% 30.39 in 5.0 mi SE 5.8 mph - N/A Snow Light Snow
10:53 AM 35.6 °F 32.8 °F 30.2 °F 81% 30.39 in 10.0 mi SE 3.5 mph - N/A   Overcast
11:53 AM 35.6 °F 29.9 °F 28.4 °F 75% 30.38 in 10.0 mi ESE 6.9 mph - N/A   Overcast
12:53 PM 37.4 °F 32.1 °F 28.4 °F 70% 30.37 in 10.0 mi SE 6.9 mph - N/A   Overcast
1:53 PM 37.4 °F 32.1 °F 30.2 °F 75% 30.37 in 10.0 mi ESE 6.9 mph - N/A   Overcast
2:53 PM 37.4 °F 32.1 °F 30.2 °F 75% 30.36 in 9.0 mi SE 6.9 mph - N/A Snow Light Snow
3:53 PM 37.4 °F 32.1 °F 32.0 °F 81% 30.35 in 10.0 mi SE 6.9 mph - N/A   Mostly Cloudy
4:53 PM 35.6 °F 31.7 °F 30.2 °F 81% 30.35 in 10.0 mi SE 4.6 mph - N/A   Overcast
5:53 PM 35.6 °F 32.8 °F 30.2 °F 81% 30.34 in 10.0 mi South 3.5 mph - N/A   Overcast
6:53 PM 35.6 °F 32.8 °F 30.2 °F 81% 30.34 in 10.0 mi South 3.5 mph - N/A   Overcast
7:53 PM 33.8 °F 30.8 °F 30.2 °F 87% 30.33 in 10.0 mi South 3.5 mph - N/A   Mostly Cloudy
8:53 PM 33.1 °F 30.0 °F 30.0 °F 89% 30.33 in 10.0 mi South 3.5 mph - N/A   Overcast
9:53 PM 33.1 °F 30.0 °F 30.0 °F 89% 30.33 in 10.0 mi SSE 3.5 mph - N/A   Overcast
10:53 PM 33.1 °F 30.0 °F 30.0 °F 89% 30.32 in 10.0 mi South 3.5 mph - N/A   Overcast
11:53 PM 30.9 °F - 28.0 °F 89% 30.31 in 10.0 mi Calm Calm - N/A   Mostly Cloudy